EHI
0 0 0 0 0 0 0 0 0 0 0 0 1 6 15 23 27 29 25 20 18 15 13 13 12 12 11 9 7 7 5 4 3 2 1 1 1 0 0 0 0 0 0 0
0 0 0 0 0 0 0 0 0 0 0 0 3 11 21 28 32 30 27 24 20 16 14 13 13 13 12 11 9 8 7 5 4 4 3 2 1 0 0 0 0 0 0 0
0 0 0 0 0 0 1 0 0 0 1 2 6 14 25 33 35 34 32 27 22 17 15 13 12 12 12 11 10 8 7 7 8 8 6 4 1 0 0 0 0 0 0 0
0 0 0 0 0 0 0 0 1 2 5 8 12 18 25 31 36 38 35 28 22 17 13 11 9 9 10 10 9 7 7 8 9 9 8 5 1 0 0 0 0 0 0 0
0 0 0 0 0 0 0 0 3 6 11 17 22 24 23 26 34 37 32 26 20 15 12 9 7 7 9 10 9 6 6 7 8 8 8 5 1 0 0 0 0 0 0 0
0 0 0 0 1 1 1 0 4 9 16 24 26 21 19 26 33 33 28 24 20 16 12 9 7 7 9 9 8 6 5 5 6 7 7 4 1 0 0 0 0 0 0 0
0 0 0 1 3 2 1 1 5 11 19 25 22 14 18 29 33 31 27 22 19 17 13 10 7 6 8 8 7 5 4 4 5 6 5 3 1 0 0 0 0 0 0 0
0 0 0 2 5 4 2 3 8 13 19 23 20 16 22 32 34 31 26 20 17 15 11 7 4 4 5 6 5 4 3 3 3 4 3 1 0 0 0 0 0 0 0 0
1 1 2 4 6 5 4 6 10 14 18 21 22 22 26 32 33 31 25 18 15 12 8 4 2 1 2 3 3 3 3 3 3 2 1 0 0 0 0 0 0 0 0 0
4 5 6 7 6 5 6 9 12 15 17 19 23 25 27 31 32 28 22 17 14 10 6 3 1 0 0 1 1 1 2 2 1 1 0 0 0 0 0 0 0 0 0 0
4 5 7 7 5 5 7 10 14 16 17 18 22 24 25 28 27 23 18 14 10 6 4 2 1 0 0 0 0 0 1 1 0 0 0 0 0 0 0 0 0 0 0 0
2 2 3 3 2 4 6 9 13 17 19 20 20 21 23 25 22 18 14 10 6 3 2 1 0 0 0 0 0 0 0 0 0 0 0 0 0 0 0 0 0 0 0 0
0 0 0 0 0 2 4 8 12 17 21 22 21 22 24 23 20 15 10 6 4 2 1 0 0 0 0 0 0 0 0 0 0 0 0 0 0 0 0 0 0 0 0 0
0 0 0 0 0 0 2 7 11 15 20 21 19 20 22 20 15 10 6 3 2 2 1 0 0 0 0 0 0 0 0 0 0 0 0 0 0 0 0 0 0 0 0 0
0 0 0 0 0 0 2 5 8 12 15 16 14 13 15 14 9 5 2 1 1 1 0 0 0 0 0 0 0 0 0 0 0 0 0 0 0 0 0 0 0 0 0 0
0 0 0 0 0 1 2 3 5 8 11 11 8 7 7 6 4 2 1 0 0 0 0 0 0 0 0 0 0 0 0 0 0 0 0 0 0 0 0 0 0 0 0 0
0 0 0 1 1 1 1 2 3 4 7 7 6 4 3 2 2 1 0 0 0 0 0 0 0 0 0 0 0 0 0 0 0 0 0 0 0 0 0 0 0 0 0 0
0 0 0 1 2 2 1 1 1 1 2 4 4 3 2 1 1 1 0 0 0 0 0 0 0 0 0 0 0 0 0 0 0 0 0 0 0 0 0 0 0 0 0 0
0 0 0 0 1 2 1 0 0 0 0 1 2 3 2 1 0 0 0 0 0 0 0 0 0 0 0 0 0 0 0 0 0 0 0 0 0 0 0 0 0 0 0 0
0 0 0 0 0 1 1 0 0 0 0 0 1 1 1 1 0 0 0 0 0 0 0 0 0 0 0 0 0 0 0 0 0 0 0 0 0 0 0 0 0 0 0 0
0 0 0 0 0 0 0 0 0 0 0 0 0 0 1 1 1 0 0 0 0 0 0 0 0 0 0 0 0 0 0 0 0 0 0 0 0 0 0 0 0 0 0 0
0 0 0 0 0 0 0 0 0 0 0 0 0 0 1 2 2 1 0 0 0 0 0 0 0 0 0 0 0 0 0 0 0 0 0 0 0 0 0 0 0 0 0 0
0 0 0 0 0 0 0 0 0 0 0 0 0 0 0 1 2 1 0 0 0 0 0 0 0 0 0 0 0 0 0 0 0 0 0 0 0 0 0 0 0 0 0 0
0 0 0 0 0 0 0 0 0 0 0 0 0 0 0 0 1 1 0 0 0 0 0 0 0 0 0 0 0 0 0 0 0 0 0 0 0 0 0 0 0 0 0 0
0 0 0 0 0 0 0 0 0 0 0 0 0 0 0 0 1 1 1 0 0 0 0 0 0 0 0 0 0 0 0 0 0 0 0 0 0 0 0 0 0 0 0 0
0 0 0 0 0 0 0 0 0 0 0 0 0 0 0 0 1 1 1 0 0 0 0 0 0 0 0 0 0 0 0 0 0 0 0 0 0 0 0 0 0 0 0 0
0 0 0 0 0 0 0 0 0 0 0 0 0 0 0 0 0 1 0 0 0 0 0 0 0 0 0 0 0 0 0 0 0 0 0 0 0 0 0 0 0 0 0 0
Wind_Speed
4 4 4 4 6 7 6 9 9 9 8 10 8 7 6 7 8 8 7 7 8 7 7 6 6 5 5 5 5 5 6 6 5 5 5 5 5 5 5 5 5 4 5 5
1 1 3 2 4 6 5 5 5 3 7 6 2 4 6 8 9 9 8 8 8 7 7 7 6 6 6 5 5 6 6 6 6 6 5 5 5 5 6 6 6 6 6 6
3 1 3 2 4 5 4 4 7 7 8 2 3 7 9 10 10 10 9 8 9 8 8 7 7 7 6 5 5 6 6 6 6 6 6 5 5 6 6 6 6 6 6 6
4 4 4 8 3 3 4 3 4 4 3 4 6 4 4 6 9 9 9 8 8 8 8 7 6 7 6 7 6 6 6 5 5 6 6 6 6 6 5 5 5 5 6 6
5 5 3 4 1 3 3 2 2 4 2 2 5 5 1 3 6 8 8 7 7 8 7 7 8 8 8 7 6 6 6 5 5 6 6 6 6 5 4 5 5 5 5 6
5 5 6 6 2 1 3 3 3 3 4 5 6 4 4 5 6 7 7 6 7 7 8 8 7 8 8 7 7 6 6 5 5 6 7 7 6 5 4 5 5 5 6 6
4 3 6 5 5 1 5 7 3 3 5 7 6 5 3 7 7 7 7 7 8 8 8 7 7 8 8 7 7 6 6 6 6 6 6 6 5 4 5 5 6 6 6 5
4 4 6 3 1 3 5 3 1 2 3 5 3 4 6 8 8 9 8 8 8 8 7 7 7 8 7 7 6 7 7 7 6 6 5 6 6 5 5 5 6 5 5 5
5 6 4 2 2 3 2 1 1 1 2 4 5 5 6 7 8 8 8 7 7 8 8 6 6 8 8 7 7 8 8 7 6 6 5 5 6 6 4 4 4 3 3 4
0 2 3 3 2 2 1 1 1 1 3 4 4 5 6 7 6 7 6 7 7 8 8 6 6 6 7 7 8 8 8 7 6 6 6 5 4 4 4 3 4 3 3 3
0 2 3 4 4 4 4 4 4 4 3 4 5 5 5 5 6 6 6 6 7 7 8 7 6 7 7 8 8 8 8 7 6 5 6 5 4 3 3 2 2 4 3 3
4 4 2 3 3 2 3 3 3 4 4 4 4 5 5 5 4 5 6 6 6 6 7 7 7 7 7 7 8 9 8 6 5 5 5 5 5 5 7 5 5 4 4 4
3 2 2 2 2 1 1 2 3 3 4 4 3 5 5 5 4 5 5 6 6 7 7 7 7 7 6 7 8 8 8 7 6 5 5 5 5 5 4 4 7 6 5 5
1 1 1 0 1 1 2 3 3 5 5 4 4 5 5 4 5 6 6 5 5 6 6 7 7 7 6 7 7 7 7 8 7 5 5 5 4 4 4 4 3 2 3 4
1 1 2 1 1 2 2 3 4 4 4 4 4 4 4 4 4 4 4 5 6 6 6 7 7 6 6 8 8 8 7 6 5 5 5 5 4 4 4 4 3 3 2 2
0 2 2 2 1 1 2 2 3 2 2 2 2 2 3 3 3 3 4 6 6 6 6 7 7 7 7 8 8 6 6 9 8 6 5 5 5 4 4 4 3 3 2 2
2 1 1 1 1 0 0 1 1 1 1 2 2 2 3 4 3 4 4 4 4 4 5 6 6 7 8 8 8 6 6 7 10 7 5 5 5 4 4 4 4 3 2 2
3 3 3 3 2 2 1 1 1 1 1 2 3 4 4 4 4 4 4 4 4 3 3 4 6 7 7 8 7 6 6 6 6 6 5 5 5 5 4 4 4 4 2 2
2 2 1 1 2 2 2 2 2 1 1 1 3 4 4 4 4 4 4 5 5 4 3 5 8 8 7 8 8 6 6 7 6 5 5 6 5 5 4 4 4 4 3 3
2 2 1 0 0 1 1 1 1 1 1 2 3 3 3 3 3 4 4 3 3 3 4 6 7 6 7 8 9 6 7 7 7 6 5 5 5 5 5 5 4 4 4 4
1 1 1 0 1 1 0 1 1 2 2 3 4 4 4 3 3 3 4 3 1 3 5 7 6 5 6 7 8 6 6 6 6 6 6 5 5 5 5 4 4 4 4 4
1 1 0 0 0 1 1 1 1 1 2 2 3 4 4 4 3 3 2 2 3 5 4 4 4 6 8 8 6 6 6 6 6 5 5 5 5 5 5 5 4 4 4 4
0 1 1 1 1 1 1 1 0 1 2 3 3 4 4 4 3 4 3 2 3 5 4 4 6 9 10 6 5 6 6 6 6 5 5 5 5 5 5 5 4 4 4 4
0 0 1 1 1 1 0 1 1 1 1 2 2 3 4 3 2 1 2 5 6 6 4 5 9 10 8 5 5 5 5 5 5 5 5 4 4 4 4 4 4 4 4 5
0 0 0 1 1 1 1 1 1 2 2 2 2 2 2 2 3 3 4 5 7 6 5 6 9 9 6 5 5 5 4 4 4 4 4 4 4 4 4 4 4 4 4 4
0 0 0 0 1 1 1 1 1 1 2 2 2 2 2 2 4 4 4 5 6 7 5 4 5 5 4 4 5 5 4 4 4 4 4 4 4 4 3 3 4 3 3 3
0 0 1 1 1 1 1 2 2 2 2 3 2 2 3 3 4 4 5 4 4 4 4 4 4 4 4 4 4 4 3 3 3 3 3 3 3 3 3 4 3 3 2 3
Wind_Direction
204 202 173 171 173 170 172 173 175 217 222 241 229 206 181 162 155 152 156 160 156 153 148 142 132 127 126 128 127 126 122 116 111 103 95 87 77 71 70 71 74 70 69 61
176 210 184 176 182 178 184 170 196 210 245 250 225 143 151 162 163 164 168 168 157 149 148 148 144 140 135 135 134 127 124 122 114 105 96 89 82 77 75 70 68 67 63 60
186 213 105 232 208 177 180 187 172 198 231 190 168 183 182 176 172 175 171 166 161 156 158 156 149 144 142 134 125 122 124 124 120 112 102 94 90 83 79 74 71 68 61 62
134 118 190 238 254 184 172 201 206 218 227 192 200 187 165 164 171 171 166 164 161 159 158 150 141 135 131 126 126 123 120 119 119 114 109 102 95 90 85 80 77 72 64 61
123 152 239 287 247 161 166 245 223 202 195 121 117 86 71 184 173 172 169 161 159 157 150 144 143 142 137 133 131 127 129 129 126 124 118 111 106 102 94 88 79 71 66 63
123 139 205 234 270 279 130 263 260 183 166 144 125 137 229 182 160 151 145 144 143 138 130 137 145 142 139 141 142 146 146 137 130 126 122 118 116 109 97 95 90 84 70 59
138 165 244 255 291 62 154 233 271 192 174 161 172 197 172 143 142 140 138 140 138 133 134 141 141 141 145 147 154 148 133 122 117 116 119 120 113 107 108 103 94 86 78 60
137 155 237 299 34 160 214 262 269 186 172 160 153 127 126 136 140 138 136 137 137 135 135 137 141 141 147 151 146 133 126 123 120 119 123 120 116 109 108 111 103 94 86 69
181 202 245 295 258 275 227 231 263 169 165 143 133 133 129 134 140 141 142 141 136 136 135 137 146 149 151 149 140 132 126 125 123 116 109 118 122 122 113 110 111 106 98 87
312 300 309 320 328 336 323 230 313 127 135 136 139 135 131 136 141 139 136 137 134 134 138 144 147 144 145 141 139 134 132 131 129 125 118 110 109 118 124 131 129 125 120 112
20 300 347 358 358 352 9 30 48 54 73 115 126 126 132 137 143 142 138 138 141 146 150 152 147 139 139 144 142 138 136 134 132 128 127 117 102 89 114 115 147 149 152 146
207 222 195 266 312 356 27 23 38 66 60 61 106 125 126 132 139 140 141 140 143 146 149 149 147 144 145 147 147 143 141 143 142 138 134 131 122 92 60 77 88 107 130 137
210 210 204 238 310 3 59 40 40 71 94 92 91 116 124 131 132 130 134 145 155 156 153 149 148 150 153 149 147 148 150 152 148 147 147 145 142 138 122 73 70 78 96 120
204 126 74 319 313 350 48 44 61 65 67 84 96 100 108 121 130 139 147 151 147 144 146 149 152 157 156 149 147 146 147 151 150 152 152 150 149 146 144 141 127 80 57 87
299 185 189 186 35 20 34 59 71 65 64 70 83 100 118 136 148 149 140 134 137 143 152 155 158 162 157 154 153 152 151 151 150 148 147 146 145 143 140 138 134 124 109 87
35 75 87 90 77 28 31 60 84 83 75 81 93 114 119 127 133 127 131 144 153 164 168 165 168 168 161 158 154 152 154 154 152 149 149 148 149 150 148 148 149 151 158 161
141 142 150 183 210 257 254 171 160 146 107 119 151 148 130 133 133 135 141 151 157 163 166 169 170 163 163 163 159 157 154 155 153 152 156 158 159 161 160 161 164 169 186 186
185 199 201 200 212 218 244 221 201 199 184 191 154 143 150 162 170 168 153 140 134 135 157 164 160 158 164 165 160 155 155 156 160 162 161 161 162 164 165 166 169 171 176 167
192 199 201 229 237 202 202 213 218 219 217 158 145 156 164 165 163 160 151 151 161 173 179 160 154 157 161 163 155 151 153 155 156 156 158 158 160 164 167 169 173 178 173 171
182 178 151 261 325 181 208 227 194 187 179 141 142 146 154 168 167 159 152 164 190 182 162 155 155 156 157 158 153 152 155 156 157 156 156 159 165 170 173 175 178 182 182 186
158 163 139 122 339 344 227 232 196 185 163 156 164 167 168 169 165 157 153 167 195 148 145 150 152 153 153 152 151 151 153 155 157 160 160 164 168 173 177 183 188 190 191 194
146 151 229 295 313 316 322 296 214 179 150 150 154 152 152 159 159 150 155 173 163 147 144 150 150 150 151 148 149 151 154 155 156 156 158 163 168 174 181 186 191 195 196 198
166 208 247 247 241 274 326 339 293 168 165 165 163 165 168 171 166 157 162 162 146 144 139 142 143 142 143 142 145 150 153 155 158 161 164 168 174 179 183 188 195 197 197 202
255 238 230 203 164 141 342 337 13 113 130 133 148 156 154 147 134 139 137 142 143 138 130 137 139 139 137 135 137 141 145 150 154 158 161 166 175 180 185 191 197 200 203 206
6 23 88 133 152 179 185 146 103 100 100 98 96 100 123 140 143 143 131 134 135 129 125 137 143 142 138 136 138 141 143 148 153 157 165 171 179 183 189 193 196 198 204 211
314 310 314 199 187 177 163 147 141 134 124 117 101 91 94 101 115 120 123 129 130 128 127 133 143 142 137 136 138 140 140 146 152 162 170 173 177 181 188 192 193 196 200 205
34 65 69 49 38 126 149 146 143 143 144 141 131 113 108 108 110 116 120 122 124 125 127 131 133 132 131 131 130 129 132 140 153 162 164 168 174 183 187 186 185 183 189 197